Location: Indian Hills
(32.9760°N, 85.9450°W)
Time: 17:31:22
(UTC+00:00)

Envisat - Visible Passes

Search period start: 25 February 2021 00:00
Search period end: 07 March 2021 00:00
Orbit: 764 x 766 km, 98.1° (Epoch: 25 February)

Date Brightness Start Highest point End Pass type
(mag) Time Alt. Az. Time Alt. Az. Time Alt. Az.
25 Feb 5.4 10:28:59 10° NE 10:33:02 24° E 10:37:05 10° SSE visible
26 Feb 2.9 11:30:17 10° N 11:35:22 76° WNW 11:40:25 10° SSW visible
27 Feb 4.2 10:53:42 10° NNE 10:58:33 44° E 11:03:21 10° S visible
28 Feb 5.8 10:18:05 10° NE 10:21:33 18° E 10:24:59 10° SE visible
01 Mar 3.1 11:18:52 10° NNE 11:23:58 84° ESE 11:29:02 10° S visible
02 Mar 4.8 10:42:29 10° NNE 10:47:05 34° E 10:51:39 10° SSE visible
03 Mar 6.1 10:07:28 10° ENE 10:10:02 14° E 10:12:35 10° ESE visible
04 Mar 3.5 11:07:29 10° NNE 11:12:32 64° E 11:17:33 10° S visible
05 Mar 5.2 10:31:23 10° NE 10:35:36 26° E 10:39:48 10° SSE visible
06 Mar 6.4 09:58:04 10° E 09:58:30 10° E 09:58:55 10° E visible
06 Mar 3.0 11:32:51 10° N 11:37:53 69° WNW 11:42:55 10° SSW visible
